星链-33581 (STARLINK-33581)

导读

STARLINK-33581是美国(US)于2025年1月21日发射的星链卫星,隶属于SpaceX公司的星链项目。星链项目旨在构建全球卫星互联网星座,为全球偏远地区、海洋等网络覆盖薄弱区域提供高速互联网接入服务,该卫星入轨后将进一步扩充星链星座的服务能力,提升全球网络覆盖的广度与稳定性。

Basic Information
目录编号:
62784
目录名称:
STARLINK-33581
国际标识:
2025-015AC
轨道中心:
EARTH
卫星名称:
星链-33581
卫星全名:
星链-33581 (STARLINK-33581)
卫星状态:
在轨 (已飞行591 天)
发射日期:
2025-01-21 UTC
国别 :
美国 (US)
星等 :
--
Orbit Information
数据来源 国际轨道数据
星历时间: 2026-09-04T05:45:49+0800
19小时前
查看轨道信息
半长轴: 6848.839km
偏心率: 0.0001467
轨道倾角: 53.159°
近地点辐角 92.688°
升交点赤经 213.473°
平近点角 267.429°
近地点: 469.697km
远地点: 471.707km
周期: 94.012分钟
每日圈数: 15.317128
Detailed Information
固有亮度:
5
最大亮度:
2.5
卫星平台:
Starlink V1.0
覆盖范围:
全球
运营商:
太空探索技术公司
运营商所在国:
美国
制造商(研发单位):
太空探索技术公司
制造商所在国:
美国
使用方式:
暂无
Satellite Introduction
Starlink 计划是 SpaceX 推出的全球卫星互联网项目,通过发射低轨道卫星,为全球尤其是偏远地区提供高速、低延迟的互联网服务。自 2019 年起,Starlink 已部署数千颗卫星,旨在缩小全球数字鸿沟,推动互联网普及。该项目还为军事、航空等行业提供通信支持,带来广泛经济效益。
2D Orbit Map
3D Orbit Map
Orbit Altitude Analysis Chart
Orbit Inclination Analysis Chart
Orbit Comprehensive Analysis Chart
View Comprehensive Chart
Conjunction Data List
Event ID Objects TCA Miss Dist (km) Collision Risk Probability Collision Risk Index (CRI) Action
CDM_260906-234506-278406-485721
2026-09-06T
23:45:31+0000
2.915 km
极远距离
1.217561E-6 低风险 0.37